TimeAKST,TemperatureF,Dew PointF,Humidity,Sea Level PressureIn,VisibilityMPH,Wind Direction,Wind SpeedMPH,Gust SpeedMPH,PrecipitationIn,Events,Conditions,WindDirDegrees,DateUTC
12:02 AM,33.8,33.8,100,30.29,5.0,WNW,6.9,-,N/A,,Overcast,300,2013-01-16 09:02:00
12:54 AM,33.1,33.1,100,30.32,5.0,NW,5.8,-,N/A,,Overcast,310,2013-01-16 09:54:00
1:54 AM,33.1,32.0,96,30.32,3.0,WNW,5.8,-,N/A,,Overcast,290,2013-01-16 10:54:00
2:54 AM,33.1,32.0,96,30.32,4.0,WNW,6.9,-,0.00,,Overcast,290,2013-01-16 11:54:00
3:37 AM,33.8,32.0,93,30.32,9.0,WNW,9.2,-,N/A,,Overcast,290,2013-01-16 12:37:00
3:54 AM,33.1,32.0,96,30.32,10.0,WNW,10.4,-,N/A,,Overcast,300,2013-01-16 12:54:00
4:19 AM,33.8,32.0,93,30.31,5.0,WNW,10.4,-,N/A,,Overcast,290,2013-01-16 13:19:00
4:54 AM,33.1,32.0,96,30.31,10.0,WNW,11.5,-,N/A,,Overcast,290,2013-01-16 13:54:00
5:54 AM,32.0,32.0,100,30.30,10.0,WNW,10.4,-,N/A,,Overcast,290,2013-01-16 14:54:00
6:54 AM,32.0,32.0,100,30.29,10.0,West,10.4,-,N/A,,Overcast,280,2013-01-16 15:54:00
7:54 AM,32.0,30.9,96,30.28,10.0,WNW,9.2,-,N/A,,Overcast,300,2013-01-16 16:54:00
8:01 AM,32.0,30.2,93,30.27,10.0,WNW,10.4,-,N/A,,Overcast,290,2013-01-16 17:01:00
8:54 AM,32.0,30.9,96,30.27,10.0,West,11.5,-,N/A,,Overcast,280,2013-01-16 17:54:00
9:54 AM,32.0,30.9,96,30.25,10.0,WNW,10.4,-,N/A,,Overcast,290,2013-01-16 18:54:00
11:54 AM,32.0,30.0,92,30.20,2.5,WNW,9.2,-,0.00,Snow,Light Snow,300,2013-01-16 20:54:00
12:03 PM,32.0,30.2,93,30.19,5.0,WNW,8.1,-,0.00,Snow,Light Snow,300,2013-01-16 21:03:00
12:29 PM,32.0,30.2,93,30.17,4.0,WNW,8.1,-,0.00,Snow,Light Snow,290,2013-01-16 21:29:00
12:40 PM,32.0,30.2,93,30.17,2.5,West,6.9,-,0.01,Snow,Light Snow,280,2013-01-16 21:40:00
12:51 PM,32.0,30.2,93,30.16,3.0,WNW,5.8,-,0.01,Snow,Light Snow,300,2013-01-16 21:51:00
12:54 PM,32.0,30.9,96,30.17,3.0,WNW,8.1,-,0.01,Snow,Light Snow,300,2013-01-16 21:54:00
1:54 PM,32.0,30.9,96,30.12,9.0,NW,4.6,-,0.00,Snow,Light Snow,320,2013-01-16 22:54:00
2:54 PM,32.0,30.0,92,30.07,4.0,Calm,Calm,-,0.01,Snow,Light Snow,0,2013-01-16 23:54:00
3:27 PM,33.8,32.0,93,30.03,9.0,East,3.5,-,0.01,Rain,Light Rain,100,2013-01-17 00:27:00
3:40 PM,32.0,30.2,93,30.02,9.0,Calm,Calm,-,0.01,Snow,Light Snow,0,2013-01-17 00:40:00
3:48 PM,32.0,30.2,93,30.02,7.0,Calm,Calm,-,0.01,Snow,Light Snow,0,2013-01-17 00:48:00
3:54 PM,32.0,30.9,96,30.02,6.0,Calm,Calm,-,0.02,Snow,Light Snow,0,2013-01-17 00:54:00
4:54 PM,33.1,32.0,96,29.96,4.0,East,3.5,-,0.02,Snow,Light Snow,90,2013-01-17 01:54:00
5:31 PM,33.8,32.0,93,29.93,2.5,East,3.5,-,0.01,Snow,Light Snow,100,2013-01-17 02:31:00
5:43 PM,33.8,32.0,93,29.92,1.8,Calm,Calm,-,0.02,Snow,Light Snow,0,2013-01-17 02:43:00
5:54 PM,32.0,30.9,96,29.93,1.5,Calm,Calm,-,0.03,Snow,Light Snow,0,2013-01-17 02:54:00
6:25 PM,30.2,30.2,100,29.89,1.0,Calm,Calm,-,0.04,Snow,Light Snow,0,2013-01-17 03:25:00
6:54 PM,32.0,32.0,100,29.87,1.0,ESE,4.6,-,0.09,Snow,Light Snow,110,2013-01-17 03:54:00
7:44 PM,32.0,32.0,100,29.81,1.2,SE,10.4,-,0.06,Snow,Light Snow,140,2013-01-17 04:44:00
7:54 PM,32.0,32.0,100,29.81,2.0,ESE,8.1,-,0.07,Snow,Light Snow,120,2013-01-17 04:54:00
8:04 PM,32.0,32.0,100,29.79,1.8,SE,11.5,-,0.01,Snow,Light Snow,130,2013-01-17 05:04:00
8:25 PM,33.8,32.0,93,29.77,2.5,East,12.7,19.6,0.03,Snow,Light Snow,90,2013-01-17 05:25:00
8:54 PM,33.1,32.0,96,29.77,2.0,East,10.4,18.4,0.06,Snow,Light Snow,80,2013-01-17 05:54:00
9:07 PM,33.8,32.0,93,29.74,1.8,East,11.5,18.4,0.03,Snow,Light Snow,90,2013-01-17 06:07:00
9:14 PM,33.8,32.0,93,29.73,2.0,East,12.7,21.9,0.04,Snow,Light Snow,90,2013-01-17 06:14:00
9:25 PM,33.8,32.0,93,29.73,1.5,East,12.7,19.6,0.05,Snow,Light Snow,90,2013-01-17 06:25:00
9:54 PM,34.0,32.0,92,29.73,1.8,East,15.0,25.3,0.11,Snow,Light Snow,90,2013-01-17 06:54:00
10:01 PM,33.8,32.0,93,29.71,2.5,East,13.8,24.2,0.01,Snow,Light Snow,90,2013-01-17 07:01:00
10:24 PM,33.8,32.0,93,29.70,1.8,East,15.0,24.2,0.04,Snow,Light Snow,90,2013-01-17 07:24:00
10:33 PM,33.8,32.0,93,29.69,2.5,East,12.7,25.3,0.05,Snow,Light Snow,80,2013-01-17 07:33:00
10:42 PM,33.8,32.0,93,29.67,4.0,ENE,16.1,23.0,0.06,Snow,Light Snow,70,2013-01-17 07:42:00
10:54 PM,34.0,32.0,92,29.68,4.0,East,12.7,25.3,0.07,Snow,Light Snow,80,2013-01-17 07:54:00
11:54 PM,35.1,33.1,92,29.65,6.0,ENE,15.0,26.5,0.03,Snow,Light Snow,70,2013-01-17 08:54:00